Погода в Секонди-Такоради

Гана     4°53′56″N   1°45′38″W
темп.,
°C
ветер,
м/с
пор.,
м/с
влажн.,
%
обл.,
%
осадки,
мм/ч
давл.,
гПа
погр.,
м
28 июня, вт
вт2800:00+24ююз249498 0.0 1013138
03:00+23зюз2295100 0.1 101369
06:00+23зюз1195100 0.1 101441
09:00+27юз237536 0.1 1014718
12:00+28ю4472100 0.4 1013917
15:00+28ююз447045 1.0 1012934
18:00+26ююз3684100 1.3 1013292
21:00+24юз2391100 0.0 1015111
29 июня, ср
ср2900:00+24юз2594100 0.0 1013192
03:00+24зюз2493100 0.3 1013131
06:00+24юз249490 0.4 1013128
09:00+27юз237860 0.1 1015627
12:00+28ююз327740 3.6 1014727
15:00+27юз458084 3.1 1012760
18:00+25юз369094 7.6 1012306
21:00+24юз4894100 5.6 1014405
30 июня, чт
чт3000:00+24юз499478 5.6 1013481
03:00+23юз3793100 0.6 1012364
06:00+23юз279474 1.3 1013381
09:00+26юз3583100 0.6 1014651
12:00+26ююз3482100 3.4 1014638
15:00+26ююз4682100 2.5 1012758
18:00+24юз3788100 3.5 1012462
21:00+23юз259394 0.0 1014168
1 июля, пт
пт100:00+23юз2593100 0.0 1013240
03:00+23зюз2792100 0.1 1012337
06:00+23з2695100 0.4 1012242
09:00+25юз358572 1.6 1014510
12:00+26юз4584100 4.6 1013655
15:00+26ююз468478 2.6 1012757
18:00+24юз379299 4.3 1013430
21:00+23юз279493 0.5 1015366
2 июля, сб
сб200:00+23зюз249549 0.8 1014132
03:00+23юз2695100 1.3 1013284
06:00+23юз2596100 3.0 1014236
09:00+23ю1397100 9.2 1015197
12:00+24ю2489100 15.8 1016381
15:00+25ююз3581100 0.9 1013675
18:00+24ююз2688100 1.1 1014303
21:00+23ююз239388 0.0 101687